Campo, CA

2:42 PM PST on January 22, 2018 (GMT -0800)
Campo

Weather History for KCZZ - October, 2013

Change the Weather History Date:

Sunday, October 6, 2013

  Actual Average Record
Temperature  
Mean Temperature 70 °F 63 °F  
Max Temperature 81 °F 82 °F 98 °F (1998)
Min Temperature 58 °F 44 °F 30 °F (1957)
Degree Days  
Heating Degree Days 0 3  
Month to date heating degree days 24 18  
Since 1 July heating degree days 67 68  
Cooling Degree Days 5 2  
Month to date cooling degree days 7 12  
Year to date cooling degree days 914 823  
Growing Degree Days 16 (Base 50)    
Moisture  
Dew Point 14 °F    
Average Humidity 13    
Maximum Humidity 17    
Minimum Humidity 8    
Precipitation  
Precipitation 0.00 in 0.02 in 0.88 in (1977)
Month to date precipitation 0.00 0.10  
Year to date precipitation 6.72 11.61  
Since 1 July precipitation 1.94  
Snow  
Snow 0.00 in - - ()
Month to date snowfall 0.0  
Year to date snowfall 0.0  
Snow Depth 0.00 in    
Sea Level Pressure  
Sea Level Pressure 30.00 in    
Wind  
Wind Speed 13 mph (NE)    
Max Wind Speed 23 mph    
Max Gust Speed 32 mph    
T = Trace of Precipitation, MM = Missing Value Source: NWS Daily Summary

Daily Weather History Graph

Daily Weather History Graph

Search for Another Location

Airport or City:

Trip Planner

Search our weather history database for the weather conditions in past years. The results will help you decide how hot, cold, wet, or windy it might be!

Date:

Astronomy

Oct. 06, 2013 Rise Set
Actual Time 6:43 AM PDT 6:23 PM PDT
Civil Twilight 6:18 AM PDT 6:48 PM PDT
Nautical Twilight 5:50 AM PDT 7:16 PM PDT
Astronomical Twilight 5:21 AM PDT 7:45 PM PDT
Moon 8:25 AM PDT (10/6) 7:34 PM PDT (10/6)
Length of Visible Light 12h 29m
Length of Day
11h 40m
Waxing Crescent, 4% of the Moon is Illuminated
Oct 6
Waxing Crescent
Oct 11
First Quarter
Oct 18
Full
Oct 26
Last Quarter
Nov 3
New

Hourly Weather History & Observations

Time (PDT) Temp. Dew Point Humidity Pressure Visibility Wind Dir Wind Speed Gust Speed Precip Events Conditions
12:52 AM 64.0 °F 12.9 °F 14% 30.03 in - NE 6.9 mph - N/A   Unknown
1:52 AM 60.1 °F 14.0 °F 16% 30.03 in - SW 3.5 mph - N/A   Unknown
2:52 AM 64.0 °F 12.9 °F 14% 30.02 in - NE 5.8 mph - N/A   Unknown
3:52 AM 60.1 °F 15.1 °F 17% 30.01 in - NE 10.4 mph - N/A   Unknown
4:52 AM 64.0 °F 15.1 °F 15% 30.01 in - NE 6.9 mph - N/A   Unknown
5:52 AM 60.1 °F 15.1 °F 17% 30.01 in - ENE 9.2 mph - N/A   Unknown
6:52 AM 66.0 °F 16.0 °F 15% 30.01 in - NE 15.0 mph 23.0 mph N/A   Unknown
7:52 AM 69.1 °F 17.1 °F 14% 30.01 in - NE 17.3 mph 23.0 mph N/A   Unknown
8:52 AM 72.0 °F 17.1 °F 12% 30.03 in - ENE 13.8 mph 20.7 mph N/A   Unknown
9:52 AM 73.9 °F 16.0 °F 11% 30.03 in - ENE 19.6 mph 28.8 mph N/A   Unknown
10:52 AM 75.0 °F 16.0 °F 11% 30.03 in - NE 15.0 mph 31.1 mph N/A   Unknown
11:52 AM 78.1 °F 16.0 °F 10% 30.02 in - NE 15.0 mph 28.8 mph N/A   Unknown
12:52 PM 78.1 °F 15.1 °F 9% 30.01 in - ENE 17.3 mph 23.0 mph N/A   Unknown
1:52 PM 79.0 °F 12.9 °F 8% 29.98 in - East 16.1 mph 23.0 mph N/A   Unknown
2:52 PM 80.1 °F 12.9 °F 8% 29.96 in - East 15.0 mph 20.7 mph N/A   Unknown
3:52 PM 79.0 °F 14.0 °F 9% 29.96 in - ENE 16.1 mph - N/A   Unknown
4:52 PM 78.1 °F 15.1 °F 9% 29.94 in - NE 13.8 mph 24.2 mph N/A   Unknown
5:52 PM 75.9 °F 12.9 °F 9% 29.94 in - NE 11.5 mph - N/A   Unknown
6:52 PM 68.0 °F 15.1 °F 13% 29.96 in - Calm Calm - N/A   Unknown
7:52 PM 63.0 °F 12.0 °F 14% 29.97 in - North 3.5 mph - N/A   Unknown
8:52 PM 53.1 °F 12.0 °F 20% 29.99 in - Calm Calm - N/A   Unknown
9:52 PM 51.1 °F 12.0 °F 21% 29.99 in - NE 5.8 mph - N/A   Unknown
10:52 PM 55.9 °F 10.9 °F 17% 29.98 in - Variable 3.5 mph - N/A   Unknown
11:52 PM 48.9 °F 16.0 °F 27% 29.97 in - North 3.5 mph - N/A   Unknown